User: anonymous   Login
Location: Unspecified
(0.0000°N, 0.0000°E)
Time: 07:58:30
(UTC+00:00)
Language:

OBJECT PE - Orbit

View from above orbital plane
View from above orbital plane
View from above satellite
View from above satellite

Ground track
Ground track

The orbit data is extracted from the following two-line orbital elements,

1 43590U 98067PE  20224.11514099  .00053892  00000-0  26897-3 0  9993
2 43590  51.6293   3.5494 0004214 319.5377  40.5311 15.81296927114549
Epoch (UTC): 11 August 2020 02:45:48
Eccentricity: 0.0004214
inclination: 51.6293°
perigee height: 324 km
apogee height: 329 km
right ascension of ascending node: 3.5494°
argument of perigee: 319.5377°
revolutions per day: 15.81296927
mean anomaly at epoch: 40.5311°
orbit number at epoch: 11454

The dashed part of the orbit path shows where the satellite is in the earth's shadow,  

DLR